Time,TemperatureF,DewpointF,PressureIn,WindDirection,WindDirectionDegrees,WindSpeedMPH,WindSpeedGustMPH,Humidity,HourlyPrecipIn,Conditions,Clouds,dailyrainin,SoftwareType,DateUTC
2014-10-01 00:02:00,55.5,53.5,30.06,SE,129,0.0,0.0,93,0.00,,---,0.00,VWS V14.01,2014-10-01 04:02:00,
2014-10-01 00:04:00,55.5,53.5,30.06,SE,128,0.0,0.0,93,0.00,,---,0.00,VWS V14.01,2014-10-01 04:04:00,
2014-10-01 00:07:00,55.4,53.1,30.07,SE,129,0.0,0.0,92,0.00,,---,0.00,VWS V14.01,2014-10-01 04:07:00,
2014-10-01 00:09:00,55.4,53.1,30.07,SE,129,0.0,0.0,92,0.00,,---,0.00,VWS V14.01,2014-10-01 04:09:00,
2014-10-01 00:12:00,55.5,53.5,30.07,SE,128,0.0,0.0,93,0.00,,---,0.00,VWS V14.01,2014-10-01 04:12:00,
2014-10-01 00:14:00,55.5,53.5,30.06,SE,128,0.0,0.0,93,0.00,,---,0.00,VWS V14.01,2014-10-01 04:14:00,
2014-10-01 00:17:00,55.5,53.2,30.07,SE,129,0.0,0.0,92,0.00,,---,0.00,VWS V14.01,2014-10-01 04:17:00,
2014-10-01 00:19:00,55.5,53.2,30.07,SE,128,0.0,0.0,92,0.00,,---,0.00,VWS V14.01,2014-10-01 04:19:00,
2014-10-01 00:22:00,55.5,53.2,30.06,SE,129,0.0,0.0,92,0.00,,---,0.00,VWS V14.01,2014-10-01 04:22:00,
2014-10-01 00:25:00,55.5,53.2,30.07,SE,129,0.0,1.0,92,0.00,,---,0.00,VWS V14.01,2014-10-01 04:25:00,
2014-10-01 00:27:00,55.5,53.2,30.06,SE,128,0.0,1.0,92,0.00,,---,0.00,VWS V14.01,2014-10-01 04:27:00,
2014-10-01 00:30:00,55.5,53.2,30.06,SE,129,0.0,1.0,92,0.00,,---,0.00,VWS V14.01,2014-10-01 04:30:00,
2014-10-01 00:33:00,55.6,53.3,30.07,SE,128,0.0,1.0,92,0.00,,---,0.00,VWS V14.01,2014-10-01 04:33:00,
2014-10-01 00:35:00,55.7,53.4,30.07,SE,128,0.0,0.0,92,0.00,,---,0.00,VWS V14.01,2014-10-01 04:35:00,
2014-10-01 00:38:00,55.7,53.4,30.07,SE,129,0.0,1.0,92,0.00,,---,0.00,VWS V14.01,2014-10-01 04:38:00,
2014-10-01 00:40:00,55.6,53.3,30.06,SE,129,0.0,1.0,92,0.00,,---,0.00,VWS V14.01,2014-10-01 04:40:00,
2014-10-01 00:43:00,55.6,53.3,30.06,SE,129,0.0,1.0,92,0.00,,---,0.00,VWS V14.01,2014-10-01 04:43:00,
2014-10-01 00:44:00,55.5,53.2,30.06,SE,129,0.0,1.0,92,0.00,,---,0.00,VWS V14.01,2014-10-01 04:44:00,
2014-10-01 00:45:00,55.5,53.2,30.06,SE,128,0.0,1.0,92,0.00,,---,0.00,VWS V14.01,2014-10-01 04:45:00,
2014-10-01 00:48:00,55.5,53.2,30.06,SE,129,0.0,1.0,92,0.00,,---,0.00,VWS V14.01,2014-10-01 04:48:00,
2014-10-01 00:49:00,55.5,53.2,30.06,SE,129,0.0,1.0,92,0.00,,---,0.00,VWS V14.01,2014-10-01 04:49:00,
2014-10-01 00:50:00,55.5,53.2,30.06,SE,128,0.0,1.0,92,0.00,,---,0.00,VWS V14.01,2014-10-01 04:50:00,
2014-10-01 00:51:00,55.5,53.2,30.06,SE,128,0.0,1.0,92,0.00,,---,0.00,VWS V14.01,2014-10-01 04:51:00,
2014-10-01 00:53:00,55.5,53.2,30.06,SE,128,0.0,1.0,92,0.00,,---,0.00,VWS V14.01,2014-10-01 04:53:00,
2014-10-01 00:54:00,55.5,53.2,30.06,SE,129,0.0,1.0,92,0.00,,---,0.00,VWS V14.01,2014-10-01 04:54:00,
2014-10-01 00:55:00,55.5,53.2,30.06,SE,128,0.0,1.0,92,0.00,,---,0.00,VWS V14.01,2014-10-01 04:55:00,
2014-10-01 00:58:00,55.5,53.2,30.06,SE,128,0.0,1.0,92,0.00,,---,0.00,VWS V14.01,2014-10-01 04:58:00,
2014-10-01 00:59:00,55.5,53.2,30.06,SE,128,0.0,1.0,92,0.00,,---,0.00,VWS V14.01,2014-10-01 04:59:00,
2014-10-01 01:01:00,55.5,53.2,30.06,SE,128,0.0,1.0,92,0.00,,---,0.00,VWS V14.01,2014-10-01 05:01:00,
2014-10-01 01:03:00,55.5,53.2,30.06,SE,129,0.0,0.0,92,0.00,,---,0.00,VWS V14.01,2014-10-01 05:03:00,
2014-10-01 01:04:00,55.5,53.2,30.07,SE,129,0.0,0.0,92,0.00,,---,0.00,VWS V14.01,2014-10-01 05:04:00,
2014-10-01 01:06:00,55.5,53.2,30.06,SE,128,0.0,0.0,92,0.00,,---,0.00,VWS V14.01,2014-10-01 05:06:00,
2014-10-01 01:08:00,55.5,53.2,30.07,SE,128,0.0,0.0,92,0.00,,---,0.00,VWS V14.01,2014-10-01 05:08:00,
2014-10-01 01:09:00,55.4,53.1,30.07,SE,128,0.0,0.0,92,0.00,,---,0.00,VWS V14.01,2014-10-01 05:09:00,
2014-10-01 01:11:00,55.4,53.1,30.07,SE,129,0.0,0.0,92,0.00,,---,0.00,VWS V14.01,2014-10-01 05:11:00,
2014-10-01 01:13:00,55.4,53.1,30.07,SE,128,0.0,0.0,92,0.00,,---,0.00,VWS V14.01,2014-10-01 05:13:00,
2014-10-01 01:14:00,55.4,53.4,30.07,SE,129,0.0,0.0,93,0.00,,---,0.00,VWS V14.01,2014-10-01 05:14:00,
2014-10-01 01:16:00,55.3,53.0,30.07,SE,129,0.0,0.0,92,0.00,,---,0.00,VWS V14.01,2014-10-01 05:16:00,
2014-10-01 01:18:00,55.3,53.0,30.07,SE,129,0.0,0.0,92,0.00,,---,0.00,VWS V14.01,2014-10-01 05:18:00,
2014-10-01 01:19:00,55.3,53.3,30.07,SE,128,0.0,0.0,93,0.00,,---,0.00,VWS V14.01,2014-10-01 05:19:00,
2014-10-01 01:21:00,55.3,53.3,30.07,SE,129,0.0,0.0,93,0.00,,---,0.00,VWS V14.01,2014-10-01 05:21:00,
2014-10-01 01:23:00,55.3,53.3,30.07,SE,129,0.0,0.0,93,0.00,,---,0.00,VWS V14.01,2014-10-01 05:23:00,
2014-10-01 01:24:00,55.3,53.0,30.07,SE,128,0.0,0.0,92,0.00,,---,0.00,VWS V14.01,2014-10-01 05:24:00,
2014-10-01 01:26:00,55.3,53.0,30.07,SE,130,1.0,1.0,92,0.00,,---,0.00,VWS V14.01,2014-10-01 05:26:00,
2014-10-01 01:28:00,55.3,53.0,30.07,SE,130,0.0,1.0,92,0.00,,---,0.00,VWS V14.01,2014-10-01 05:28:00,
2014-10-01 01:30:00,55.3,53.0,30.07,SE,130,0.0,1.0,92,0.00,,---,0.00,VWS V14.01,2014-10-01 05:30:00,
2014-10-01 01:31:00,55.4,53.1,30.07,SE,129,0.0,1.0,92,0.00,,---,0.00,VWS V14.01,2014-10-01 05:31:00,
2014-10-01 01:33:00,55.4,53.1,30.07,SE,129,0.0,0.0,92,0.00,,---,0.00,VWS V14.01,2014-10-01 05:33:00,
2014-10-01 01:35:00,55.5,53.5,30.07,SE,130,0.0,1.0,93,0.00,,---,0.00,VWS V14.01,2014-10-01 05:35:00,
2014-10-01 01:36:00,55.5,53.2,30.06,SE,130,0.0,1.0,92,0.00,,---,0.00,VWS V14.01,2014-10-01 05:36:00,
2014-10-01 01:38:00,55.5,53.2,30.06,SSE,155,0.0,1.0,92,0.00,,---,0.00,VWS V14.01,2014-10-01 05:38:00,
2014-10-01 01:40:00,55.5,53.2,30.06,SSE,155,0.0,1.0,92,0.00,,---,0.00,VWS V14.01,2014-10-01 05:40:00,
2014-10-01 01:41:00,55.5,53.2,30.06,SW,232,0.0,1.0,92,0.00,,---,0.00,VWS V14.01,2014-10-01 05:41:00,
2014-10-01 01:44:00,55.5,53.2,30.06,SW,232,0.0,1.0,92,0.00,,---,0.00,VWS V14.01,2014-10-01 05:44:00,
2014-10-01 01:45:00,55.5,53.2,30.06,SW,232,0.0,1.0,92,0.00,,---,0.00,VWS V14.01,2014-10-01 05:45:00,
2014-10-01 01:47:00,55.5,53.2,30.06,South,173,0.0,1.0,92,0.00,,---,0.00,VWS V14.01,2014-10-01 05:47:00,
2014-10-01 01:48:00,55.5,53.2,30.06,South,172,0.0,1.0,92,0.00,,---,0.00,VWS V14.01,2014-10-01 05:48:00,
2014-10-01 01:50:00,55.5,53.2,30.06,SSW,195,1.0,2.0,92,0.00,,---,0.00,VWS V14.01,2014-10-01 05:50:00,
2014-10-01 01:52:00,55.5,53.2,30.07,SSW,195,0.0,2.0,92,0.00,,---,0.00,VWS V14.01,2014-10-01 05:52:00,
2014-10-01 01:53:00,55.5,53.2,30.06,SSW,195,0.0,2.0,92,0.00,,---,0.00,VWS V14.01,2014-10-01 05:53:00,
2014-10-01 01:55:00,55.5,53.2,30.06,SSE,160,0.0,2.0,92,0.00,,---,0.00,VWS V14.01,2014-10-01 05:55:00,
2014-10-01 01:57:00,55.5,53.2,30.07,ESE,113,0.0,2.0,92,0.00,,---,0.00,VWS V14.01,2014-10-01 05:57:00,
2014-10-01 01:58:00,55.6,53.3,30.06,ESE,113,0.0,2.0,92,0.00,,---,0.00,VWS V14.01,2014-10-01 05:58:00,
2014-10-01 02:00:00,55.5,53.2,30.07,ESE,113,0.0,2.0,92,0.00,,---,0.00,VWS V14.01,2014-10-01 06:00:00,
2014-10-01 02:02:00,55.6,53.3,30.07,ESE,113,0.0,2.0,92,0.00,,---,0.00,VWS V14.01,2014-10-01 06:02:00,
2014-10-01 02:04:00,55.6,53.3,30.07,ESE,113,0.0,0.0,92,0.00,,---,0.00,VWS V14.01,2014-10-01 06:04:00,
2014-10-01 02:05:00,55.6,53.3,30.06,ESE,113,0.0,0.0,92,0.00,,---,0.00,VWS V14.01,2014-10-01 06:05:00,
2014-10-01 02:07:00,55.6,53.3,30.06,ESE,113,0.0,0.0,92,0.00,,---,0.00,VWS V14.01,2014-10-01 06:07:00,
2014-10-01 02:09:00,55.6,53.3,30.06,ESE,113,0.0,0.0,92,0.00,,---,0.00,VWS V14.01,2014-10-01 06:09:00,
2014-10-01 02:11:00,55.6,53.3,30.06,ESE,113,0.0,0.0,92,0.00,,---,0.00,VWS V14.01,2014-10-01 06:11:00,
2014-10-01 02:12:00,55.6,53.3,30.06,ESE,113,0.0,0.0,92,0.00,,---,0.00,VWS V14.01,2014-10-01 06:12:00,
2014-10-01 02:14:00,55.6,53.3,30.06,ESE,113,0.0,0.0,92,0.00,,---,0.00,VWS V14.01,2014-10-01 06:14:00,
2014-10-01 02:16:00,55.6,53.3,30.06,ESE,113,0.0,0.0,92,0.00,,---,0.00,VWS V14.01,2014-10-01 06:16:00,
2014-10-01 02:17:00,55.7,53.4,30.06,ESE,113,0.0,0.0,92,0.00,,---,0.00,VWS V14.01,2014-10-01 06:17:00,
2014-10-01 02:19:00,55.7,53.4,30.06,ESE,113,0.0,0.0,92,0.00,,---,0.00,VWS V14.01,2014-10-01 06:19:00,
2014-10-01 02:21:00,55.6,53.3,30.06,ESE,113,0.0,0.0,92,0.00,,---,0.00,VWS V14.01,2014-10-01 06:21:00,
2014-10-01 02:22:00,55.6,53.3,30.06,ESE,113,0.0,0.0,92,0.00,,---,0.00,VWS V14.01,2014-10-01 06:22:00,
2014-10-01 02:24:00,55.6,53.3,30.06,ESE,113,0.0,0.0,92,0.00,,---,0.00,VWS V14.01,2014-10-01 06:24:00,
2014-10-01 02:26:00,55.6,53.3,30.06,ESE,113,0.0,0.0,92,0.00,,---,0.00,VWS V14.01,2014-10-01 06:26:00,
2014-10-01 02:27:00,55.6,53.3,30.06,ESE,113,0.0,0.0,92,0.00,,---,0.00,VWS V14.01,2014-10-01 06:27:00,
2014-10-01 02:29:00,55.6,53.3,30.06,ESE,113,0.0,0.0,92,0.00,,---,0.00,VWS V14.01,2014-10-01 06:29:00,
2014-10-01 02:31:00,55.6,53.3,30.06,ESE,113,0.0,0.0,92,0.00,,---,0.00,VWS V14.01,2014-10-01 06:31:00,
2014-10-01 02:33:00,55.5,53.2,30.06,ESE,113,0.0,0.0,92,0.00,,---,0.00,VWS V14.01,2014-10-01 06:33:00,
2014-10-01 02:34:00,55.5,53.2,30.06,ESE,113,1.0,1.0,92,0.00,,---,0.00,VWS V14.01,2014-10-01 06:34:00,
2014-10-01 02:36:00,55.5,53.2,30.06,ESE,113,0.0,1.0,92,0.00,,---,0.00,VWS V14.01,2014-10-01 06:36:00,
2014-10-01 02:38:00,55.5,53.2,30.06,ESE,113,0.0,1.0,92,0.00,,---,0.00,VWS V14.01,2014-10-01 06:38:00,
2014-10-01 02:39:00,55.5,53.5,30.06,ESE,113,0.0,1.0,93,0.00,,---,0.00,VWS V14.01,2014-10-01 06:39:00,
2014-10-01 02:41:00,55.5,53.5,30.06,ESE,113,0.0,1.0,93,0.00,,---,0.00,VWS V14.01,2014-10-01 06:41:00,
2014-10-01 02:42:00,55.5,53.5,30.06,ESE,113,0.0,1.0,93,0.00,,---,0.00,VWS V14.01,2014-10-01 06:42:00,
2014-10-01 02:43:00,55.5,53.5,30.06,ESE,113,0.0,1.0,93,0.00,,---,0.00,VWS V14.01,2014-10-01 06:43:00,
2014-10-01 02:46:00,55.5,53.5,30.06,ESE,113,0.0,1.0,93,0.00,,---,0.00,VWS V14.01,2014-10-01 06:46:00,
2014-10-01 02:47:00,55.5,53.5,30.06,ESE,113,1.0,1.0,93,0.00,,---,0.00,VWS V14.01,2014-10-01 06:47:00,
2014-10-01 02:48:00,55.5,53.5,30.06,ESE,113,1.0,2.0,93,0.00,,---,0.00,VWS V14.01,2014-10-01 06:48:00,
2014-10-01 02:51:00,55.5,53.2,30.06,ESE,113,0.0,2.0,92,0.00,,---,0.00,VWS V14.01,2014-10-01 06:51:00,
2014-10-01 02:52:00,55.5,53.2,30.06,ESE,113,0.0,2.0,92,0.00,,---,0.00,VWS V14.01,2014-10-01 06:52:00,
2014-10-01 02:54:00,55.5,53.2,30.06,ESE,113,0.0,2.0,92,0.00,,---,0.00,VWS V14.01,2014-10-01 06:54:00,
2014-10-01 02:56:00,55.5,53.5,30.06,ESE,113,0.0,2.0,93,0.00,,---,0.00,VWS V14.01,2014-10-01 06:56:00,
2014-10-01 02:57:00,55.5,53.5,30.06,ESE,113,0.0,2.0,93,0.00,,---,0.00,VWS V14.01,2014-10-01 06:57:00,
2014-10-01 02:59:00,55.5,53.5,30.06,ESE,113,0.0,2.0,93,0.00,,---,0.00,VWS V14.01,2014-10-01 06:59:00,
2014-10-01 03:01:00,55.5,53.5,30.05,ESE,113,0.0,2.0,93,0.00,,---,0.00,VWS V14.01,2014-10-01 07:01:00,
2014-10-01 03:02:00,55.5,53.5,30.05,ESE,113,0.0,2.0,93,0.00,,---,0.00,VWS V14.01,2014-10-01 07:02:00,
2014-10-01 03:04:00,55.5,53.5,30.06,ESE,113,0.0,0.0,93,0.00,,---,0.00,VWS V14.01,2014-10-01 07:04:00,
2014-10-01 03:07:00,55.4,53.4,30.05,ESE,113,0.0,0.0,93,0.00,,---,0.00,VWS V14.01,2014-10-01 07:07:00,
2014-10-01 03:08:00,55.4,53.4,30.05,ESE,113,0.0,0.0,93,0.00,,---,0.00,VWS V14.01,2014-10-01 07:08:00,
2014-10-01 03:09:00,55.4,53.4,30.05,ESE,113,0.0,0.0,93,0.00,,---,0.00,VWS V14.01,2014-10-01 07:09:00,
2014-10-01 03:12:00,55.3,53.3,30.05,ESE,113,0.0,0.0,93,0.00,,---,0.00,VWS V14.01,2014-10-01 07:12:00,
2014-10-01 03:13:00,55.3,53.3,30.05,ESE,113,0.0,0.0,93,0.00,,---,0.00,VWS V14.01,2014-10-01 07:13:00,
2014-10-01 03:14:00,55.3,53.3,30.05,ESE,113,0.0,0.0,93,0.00,,---,0.00,VWS V14.01,2014-10-01 07:14:00,
2014-10-01 03:17:00,55.3,53.3,30.05,ESE,113,0.0,0.0,93,0.00,,---,0.00,VWS V14.01,2014-10-01 07:17:00,
2014-10-01 03:18:00,55.3,53.3,30.05,ESE,113,0.0,0.0,93,0.00,,---,0.00,VWS V14.01,2014-10-01 07:18:00,
2014-10-01 03:19:00,55.3,53.3,30.05,ESE,113,0.0,0.0,93,0.00,,---,0.00,VWS V14.01,2014-10-01 07:19:00,
2014-10-01 03:22:00,55.2,53.2,30.05,ESE,113,0.0,0.0,93,0.00,,---,0.00,VWS V14.01,2014-10-01 07:22:00,
2014-10-01 03:23:00,55.2,53.2,30.06,ESE,113,0.0,0.0,93,0.00,,---,0.00,VWS V14.01,2014-10-01 07:23:00,
2014-10-01 03:24:00,55.2,53.2,30.06,ESE,113,0.0,0.0,93,0.00,,---,0.00,VWS V14.01,2014-10-01 07:24:00,
2014-10-01 03:27:00,55.2,53.2,30.06,ESE,113,0.0,0.0,93,0.00,,---,0.00,VWS V14.01,2014-10-01 07:27:00,
2014-10-01 03:28:00,55.1,53.1,30.06,ESE,113,0.0,0.0,93,0.00,,---,0.00,VWS V14.01,2014-10-01 07:28:00,
2014-10-01 03:30:00,55.2,53.2,30.06,ESE,113,0.0,0.0,93,0.00,,---,0.00,VWS V14.01,2014-10-01 07:30:00,
2014-10-01 03:32:00,55.1,53.1,30.06,ESE,113,0.0,0.0,93,0.00,,---,0.00,VWS V14.01,2014-10-01 07:32:00,
2014-10-01 03:33:00,55.1,53.1,30.06,ESE,113,0.0,0.0,93,0.00,,---,0.00,VWS V14.01,2014-10-01 07:33:00,
2014-10-01 03:35:00,55.2,53.2,30.06,ESE,113,0.0,0.0,93,0.00,,---,0.00,VWS V14.01,2014-10-01 07:35:00,
2014-10-01 03:37:00,55.1,53.1,30.06,ESE,113,0.0,0.0,93,0.00,,---,0.00,VWS V14.01,2014-10-01 07:37:00,
2014-10-01 03:38:00,55.1,53.1,30.06,ESE,113,0.0,0.0,93,0.00,,---,0.00,VWS V14.01,2014-10-01 07:38:00,
2014-10-01 03:40:00,55.1,53.1,30.06,ESE,113,0.0,0.0,93,0.00,,---,0.00,VWS V14.01,2014-10-01 07:40:00,
2014-10-01 03:42:00,55.1,53.1,30.06,ESE,113,0.0,0.0,93,0.00,,---,0.00,VWS V14.01,2014-10-01 07:42:00,
2014-10-01 03:43:00,55.1,53.1,30.06,ESE,113,0.0,0.0,93,0.00,,---,0.00,VWS V14.01,2014-10-01 07:43:00,
2014-10-01 03:45:00,55.1,53.1,30.06,ESE,113,0.0,0.0,93,0.00,,---,0.00,VWS V14.01,2014-10-01 07:45:00,
2014-10-01 03:46:00,55.1,53.1,30.06,ESE,113,0.0,0.0,93,0.00,,---,0.00,VWS V14.01,2014-10-01 07:46:00,
2014-10-01 03:47:00,55.1,53.1,30.06,ESE,113,0.0,0.0,93,0.00,,---,0.00,VWS V14.01,2014-10-01 07:47:00,
2014-10-01 03:48:00,55.1,53.1,30.06,ESE,113,0.0,0.0,93,0.00,,---,0.00,VWS V14.01,2014-10-01 07:48:00,
2014-10-01 03:50:00,55.2,53.2,30.06,ESE,113,0.0,0.0,93,0.00,,---,0.00,VWS V14.01,2014-10-01 07:50:00,
2014-10-01 03:53:00,55.2,53.2,30.06,ESE,113,0.0,0.0,93,0.00,,---,0.00,VWS V14.01,2014-10-01 07:53:00,
2014-10-01 03:55:00,55.1,53.1,30.05,ESE,113,0.0,0.0,93,0.00,,---,0.00,VWS V14.01,2014-10-01 07:55:00,
2014-10-01 03:58:00,55.2,53.2,30.05,ESE,113,0.0,0.0,93,0.00,,---,0.00,VWS V14.01,2014-10-01 07:58:00,
2014-10-01 04:00:00,55.2,52.9,30.05,ESE,113,0.0,0.0,92,0.00,,---,0.00,VWS V14.01,2014-10-01 08:00:00,
2014-10-01 04:03:00,55.2,52.9,30.05,ESE,113,0.0,0.0,92,0.00,,---,0.00,VWS V14.01,2014-10-01 08:03:00,
2014-10-01 04:04:00,55.2,52.9,30.05,ESE,113,0.0,0.0,92,0.00,,---,0.00,VWS V14.01,2014-10-01 08:04:00,
2014-10-01 04:05:00,55.2,52.9,30.05,ESE,113,0.0,1.0,92,0.00,,---,0.00,VWS V14.01,2014-10-01 08:05:00,
2014-10-01 04:08:00,55.2,52.6,30.05,ESE,113,0.0,1.0,91,0.00,,---,0.00,VWS V14.01,2014-10-01 08:08:00,
2014-10-01 04:09:00,55.2,52.6,30.05,ESE,113,0.0,1.0,91,0.00,,---,0.00,VWS V14.01,2014-10-01 08:09:00,
2014-10-01 04:11:00,55.2,52.6,30.05,ESE,113,0.0,1.0,91,0.00,,---,0.00,VWS V14.01,2014-10-01 08:11:00,
2014-10-01 04:13:00,55.2,52.6,30.05,ESE,109,0.0,1.0,91,0.00,,---,0.00,VWS V14.01,2014-10-01 08:13:00,
2014-10-01 04:14:00,55.2,52.6,30.05,ESE,104,3.0,3.0,91,0.00,,---,0.00,VWS V14.01,2014-10-01 08:14:00,
2014-10-01 04:16:00,55.1,52.5,30.05,ESE,107,2.0,4.0,91,0.00,,---,0.00,VWS V14.01,2014-10-01 08:16:00,
2014-10-01 04:18:00,55.1,52.5,30.05,ESE,102,2.0,4.0,91,0.00,,---,0.00,VWS V14.01,2014-10-01 08:18:00,
2014-10-01 04:19:00,55.1,52.5,30.05,ESE,102,2.0,4.0,91,0.00,,---,0.00,VWS V14.01,2014-10-01 08:19:00,
2014-10-01 04:22:00,55.0,52.4,30.05,ESE,102,1.0,4.0,91,0.00,,---,0.00,VWS V14.01,2014-10-01 08:22:00,
2014-10-01 04:23:00,55.0,52.4,30.05,East,99,1.0,4.0,91,0.00,,---,0.00,VWS V14.01,2014-10-01 08:23:00,
2014-10-01 04:24:00,55.0,52.4,30.05,East,99,0.0,4.0,91,0.00,,---,0.00,VWS V14.01,2014-10-01 08:24:00,
2014-10-01 04:27:00,55.0,52.4,30.05,ESE,106,1.0,4.0,91,0.00,,---,0.00,VWS V14.01,2014-10-01 08:27:00,
2014-10-01 04:28:00,55.0,52.4,30.05,ESE,107,1.0,4.0,91,0.00,,---,0.00,VWS V14.01,2014-10-01 08:28:00,
2014-10-01 04:29:00,55.0,52.4,30.05,ESE,105,2.0,4.0,91,0.00,,---,0.00,VWS V14.01,2014-10-01 08:29:00,
2014-10-01 04:32:00,55.1,52.5,30.05,ESE,105,0.0,4.0,91,0.00,,---,0.00,VWS V14.01,2014-10-01 08:32:00,
2014-10-01 04:33:00,55.0,52.4,30.05,ESE,105,0.0,0.0,91,0.00,,---,0.00,VWS V14.01,2014-10-01 08:33:00,
2014-10-01 04:34:00,55.1,52.5,30.05,ESE,105,0.0,0.0,91,0.00,,---,0.00,VWS V14.01,2014-10-01 08:34:00,
2014-10-01 04:38:00,55.1,52.5,30.05,ESE,106,0.0,0.0,91,0.00,,---,0.00,VWS V14.01,2014-10-01 08:38:00,
2014-10-01 04:39:00,55.1,52.5,30.05,ESE,106,0.0,0.0,91,0.00,,---,0.00,VWS V14.01,2014-10-01 08:39:00,
2014-10-01 04:43:00,55.1,52.5,30.05,ESE,107,0.0,0.0,91,0.00,,---,0.00,VWS V14.01,2014-10-01 08:43:00,
2014-10-01 04:44:00,55.2,52.6,30.05,ESE,108,0.0,0.0,91,0.00,,---,0.00,VWS V14.01,2014-10-01 08:44:00,
2014-10-01 04:48:00,55.1,52.5,30.05,ESE,107,0.0,0.0,91,0.00,,---,0.00,VWS V14.01,2014-10-01 08:48:00,
2014-10-01 04:49:00,55.1,52.5,30.05,ESE,105,0.0,0.0,91,0.00,,---,0.00,VWS V14.01,2014-10-01 08:49:00,
2014-10-01 04:53:00,55.1,52.8,30.05,ESE,105,0.0,0.0,92,0.00,,---,0.00,VWS V14.01,2014-10-01 08:53:00,
2014-10-01 04:54:00,55.1,52.8,30.05,ESE,106,0.0,0.0,92,0.00,,---,0.00,VWS V14.01,2014-10-01 08:54:00,
2014-10-01 04:58:00,55.0,52.7,30.05,ESE,106,0.0,0.0,92,0.00,,---,0.00,VWS V14.01,2014-10-01 08:58:00,
2014-10-01 04:59:00,55.0,52.7,30.05,ESE,108,0.0,0.0,92,0.00,,---,0.00,VWS V14.01,2014-10-01 08:59:00,
2014-10-01 05:03:00,54.9,52.6,30.05,ESE,105,0.0,0.0,92,0.00,,---,0.00,VWS V14.01,2014-10-01 09:03:00,
2014-10-01 05:04:00,54.9,52.6,30.05,ESE,108,0.0,0.0,92,0.00,,---,0.00,VWS V14.01,2014-10-01 09:04:00,
2014-10-01 05:08:00,54.8,52.5,30.05,ESE,106,0.0,0.0,92,0.00,,---,0.00,VWS V14.01,2014-10-01 09:08:00,
2014-10-01 05:09:00,54.8,52.5,30.05,ESE,105,0.0,0.0,92,0.00,,---,0.00,VWS V14.01,2014-10-01 09:09:00,
2014-10-01 05:13:00,54.8,52.5,30.05,ESE,107,0.0,0.0,92,0.00,,---,0.00,VWS V14.01,2014-10-01 09:13:00,
2014-10-01 05:14:00,54.8,52.5,30.05,ESE,106,0.0,0.0,92,0.00,,---,0.00,VWS V14.01,2014-10-01 09:14:00,
2014-10-01 05:15:00,54.8,52.5,30.05,ESE,106,0.0,0.0,92,0.00,,---,0.00,VWS V14.01,2014-10-01 09:15:00,
2014-10-01 05:18:00,54.8,52.5,30.05,ESE,106,0.0,0.0,92,0.00,,---,0.00,VWS V14.01,2014-10-01 09:18:00,
2014-10-01 05:19:00,54.8,52.5,30.05,ESE,105,0.0,0.0,92,0.00,,---,0.00,VWS V14.01,2014-10-01 09:19:00,
2014-10-01 05:20:00,54.8,52.8,30.05,ESE,106,0.0,0.0,93,0.00,,---,0.00,VWS V14.01,2014-10-01 09:20:00,
2014-10-01 05:24:00,54.7,52.7,30.05,ESE,107,0.0,0.0,93,0.00,,---,0.00,VWS V14.01,2014-10-01 09:24:00,
2014-10-01 05:25:00,54.7,52.7,30.05,ESE,108,0.0,0.0,93,0.00,,---,0.00,VWS V14.01,2014-10-01 09:25:00,
2014-10-01 05:29:00,54.7,52.7,30.05,ESE,108,0.0,0.0,93,0.00,,---,0.00,VWS V14.01,2014-10-01 09:29:00,
2014-10-01 05:30:00,54.7,52.7,30.05,ESE,108,0.0,0.0,93,0.00,,---,0.00,VWS V14.01,2014-10-01 09:30:00,
2014-10-01 05:34:00,54.6,52.6,30.05,ESE,107,0.0,0.0,93,0.00,,---,0.00,VWS V14.01,2014-10-01 09:34:00,
2014-10-01 05:35:00,54.6,52.6,30.05,ESE,107,0.0,0.0,93,0.00,,---,0.00,VWS V14.01,2014-10-01 09:35:00,
2014-10-01 05:39:00,54.6,52.6,30.05,ESE,107,0.0,0.0,93,0.00,,---,0.00,VWS V14.01,2014-10-01 09:39:00,
2014-10-01 05:40:00,54.6,52.6,30.05,ESE,107,0.0,0.0,93,0.00,,---,0.00,VWS V14.01,2014-10-01 09:40:00,
2014-10-01 05:44:00,54.6,52.6,30.06,ESE,107,0.0,0.0,93,0.00,,---,0.00,VWS V14.01,2014-10-01 09:44:00,
2014-10-01 05:45:00,54.6,52.6,30.06,ESE,107,0.0,0.0,93,0.00,,---,0.00,VWS V14.01,2014-10-01 09:45:00,
2014-10-01 05:49:00,54.6,52.6,30.06,ESE,108,0.0,0.0,93,0.00,,---,0.00,VWS V14.01,2014-10-01 09:49:00,
2014-10-01 05:50:00,54.6,52.6,30.06,ESE,107,0.0,0.0,93,0.00,,---,0.00,VWS V14.01,2014-10-01 09:50:00,
2014-10-01 05:55:00,54.6,52.6,30.06,ESE,108,0.0,0.0,93,0.00,,---,0.00,VWS V14.01,2014-10-01 09:55:00,
2014-10-01 06:00:00,54.5,52.5,30.06,ESE,108,0.0,0.0,93,0.00,,---,0.00,VWS V14.01,2014-10-01 10:00:00,
2014-10-01 06:05:00,54.5,52.5,30.06,ESE,107,0.0,0.0,93,0.00,,---,0.00,VWS V14.01,2014-10-01 10:05:00,
2014-10-01 06:10:00,54.4,52.7,30.07,ESE,107,0.0,0.0,94,0.00,,---,0.00,VWS V14.01,2014-10-01 10:10:00,
2014-10-01 06:11:00,54.5,52.8,30.07,ESE,107,0.0,0.0,94,0.00,,---,0.00,VWS V14.01,2014-10-01 10:11:00,
2014-10-01 06:15:00,54.5,52.8,30.07,ESE,108,0.0,0.0,94,0.00,,---,0.00,VWS V14.01,2014-10-01 10:15:00,
2014-10-01 06:16:00,54.4,52.7,30.07,ESE,107,0.0,0.0,94,0.00,,---,0.00,VWS V14.01,2014-10-01 10:16:00,
2014-10-01 06:20:00,54.4,52.7,30.07,ESE,108,0.0,0.0,94,0.00,,---,0.00,VWS V14.01,2014-10-01 10:20:00,
2014-10-01 06:21:00,54.4,52.7,30.07,ESE,107,0.0,0.0,94,0.00,,---,0.00,VWS V14.01,2014-10-01 10:21:00,
2014-10-01 06:25:00,54.4,52.7,30.07,ESE,108,0.0,0.0,94,0.00,,---,0.00,VWS V14.01,2014-10-01 10:25:00,
2014-10-01 06:26:00,54.4,52.7,30.07,ESE,108,0.0,0.0,94,0.00,,---,0.00,VWS V14.01,2014-10-01 10:26:00,
2014-10-01 06:30:00,54.5,52.8,30.07,ESE,107,0.0,0.0,94,0.00,,---,0.00,VWS V14.01,2014-10-01 10:30:00,
2014-10-01 06:32:00,54.5,52.8,30.07,ESE,107,0.0,0.0,94,0.00,,---,0.00,VWS V14.01,2014-10-01 10:32:00,
2014-10-01 06:36:00,54.5,52.8,30.07,ESE,108,0.0,0.0,94,0.00,,---,0.00,VWS V14.01,2014-10-01 10:36:00,
2014-10-01 06:37:00,54.5,52.8,30.07,ESE,107,0.0,0.0,94,0.00,,---,0.00,VWS V14.01,2014-10-01 10:37:00,
2014-10-01 06:40:00,54.5,52.8,30.08,ESE,109,0.0,0.0,94,0.00,,---,0.00,VWS V14.01,2014-10-01 10:40:00,
2014-10-01 06:41:00,54.5,52.8,30.08,ESE,109,0.0,0.0,94,0.00,,---,0.00,VWS V14.01,2014-10-01 10:41:00,
2014-10-01 06:42:00,54.5,52.8,30.08,ESE,109,0.0,0.0,94,0.00,,---,0.00,VWS V14.01,2014-10-01 10:42:00,